TimeCDT,TemperatureF,Dew PointF,Humidity,Sea Level PressureIn,VisibilityMPH,Wind Direction,Wind SpeedMPH,Gust SpeedMPH,PrecipitationIn,Events,Conditions,WindDirDegrees,DateUTC
12:15 AM,61.3,52.7,73,30.14,10.0,Calm,Calm,-,N/A,,Clear,0,2013-07-02 05:15:00
12:35 AM,61.3,52.7,73,30.14,10.0,Calm,Calm,-,N/A,,Clear,0,2013-07-02 05:35:00
12:55 AM,59.9,53.2,79,30.14,10.0,Calm,Calm,-,N/A,,Clear,0,2013-07-02 05:55:00
1:15 AM,60.8,52.7,75,30.14,10.0,North,3.5,-,N/A,,Clear,360,2013-07-02 06:15:00
1:35 AM,59.2,52.9,80,30.14,10.0,Calm,Calm,-,N/A,,Clear,0,2013-07-02 06:35:00
1:55 AM,59.2,53.1,80,30.14,10.0,Calm,Calm,-,N/A,,Clear,0,2013-07-02 06:55:00
2:15 AM,58.6,52.3,80,30.14,10.0,NNW,3.5,-,N/A,,Clear,330,2013-07-02 07:15:00
2:35 AM,58.1,52.0,80,30.14,10.0,Calm,Calm,-,N/A,,Clear,0,2013-07-02 07:35:00
2:55 AM,57.6,52.2,82,30.13,10.0,NW,4.6,-,N/A,,Clear,320,2013-07-02 07:55:00
3:15 AM,57.2,52.3,84,30.13,10.0,Calm,Calm,-,N/A,,Clear,0,2013-07-02 08:15:00
3:35 AM,57.0,51.6,82,30.13,10.0,WNW,3.5,-,N/A,,Clear,300,2013-07-02 08:35:00
3:55 AM,57.2,51.4,81,30.13,10.0,West,4.6,-,N/A,,Clear,280,2013-07-02 08:55:00
4:15 AM,55.9,51.1,84,30.14,10.0,WNW,5.8,-,N/A,,Clear,290,2013-07-02 09:15:00
4:35 AM,55.6,51.3,85,30.14,10.0,WNW,4.6,-,N/A,,Clear,300,2013-07-02 09:35:00
4:55 AM,55.6,51.1,85,30.14,10.0,WNW,4.6,-,N/A,,Clear,300,2013-07-02 09:55:00
5:15 AM,55.8,51.3,85,30.14,10.0,NW,4.6,-,N/A,,Clear,320,2013-07-02 10:15:00
5:35 AM,55.4,50.9,85,30.14,10.0,NW,5.8,-,N/A,,Clear,310,2013-07-02 10:35:00
5:55 AM,56.1,51.4,84,30.14,10.0,NW,6.9,-,N/A,,Clear,310,2013-07-02 10:55:00
6:15 AM,56.8,52.0,84,30.14,10.0,NW,4.6,-,N/A,,Clear,310,2013-07-02 11:15:00
6:35 AM,57.7,52.9,84,30.15,10.0,NW,4.6,-,N/A,,Clear,310,2013-07-02 11:35:00
6:55 AM,60.8,54.7,80,30.15,10.0,NW,4.6,-,N/A,,Mostly Cloudy,310,2013-07-02 11:55:00
7:15 AM,63.1,55.4,76,30.15,10.0,NW,4.6,-,N/A,,Mostly Cloudy,310,2013-07-02 12:15:00
7:35 AM,64.2,54.9,72,30.15,10.0,NW,6.9,-,N/A,,Scattered Clouds,310,2013-07-02 12:35:00
7:55 AM,66.2,54.5,66,30.15,10.0,WNW,4.6,-,N/A,,Clear,300,2013-07-02 12:55:00
8:15 AM,68.0,54.0,61,30.15,10.0,NNW,4.6,-,N/A,,Clear,330,2013-07-02 13:15:00
8:35 AM,70.2,53.2,55,30.15,10.0,NNW,4.6,-,N/A,,Scattered Clouds,330,2013-07-02 13:35:00
9:15 AM,73.4,51.3,46,30.15,10.0,NNW,5.8,-,N/A,,Clear,330,2013-07-02 14:15:00
9:35 AM,73.4,52.2,47,30.15,10.0,NNW,4.6,-,N/A,,Scattered Clouds,330,2013-07-02 14:35:00
9:55 AM,75.4,53.2,46,30.15,10.0,NW,8.1,-,N/A,,Mostly Cloudy,320,2013-07-02 14:55:00
10:15 AM,76.5,52.3,43,30.14,10.0,NNW,5.8,-,N/A,,Mostly Cloudy,340,2013-07-02 15:15:00
10:35 AM,77.9,50.4,38,30.14,10.0,NW,8.1,-,N/A,,Scattered Clouds,320,2013-07-02 15:35:00
10:55 AM,77.5,51.8,41,30.14,10.0,NW,6.9,-,N/A,,Scattered Clouds,310,2013-07-02 15:55:00
11:15 AM,78.3,50.4,38,30.14,10.0,NW,6.9,-,N/A,,Scattered Clouds,320,2013-07-02 16:15:00
11:35 AM,79.5,48.4,33,30.13,10.0,NW,6.9,-,N/A,,Clear,320,2013-07-02 16:35:00
11:55 AM,79.9,47.3,32,30.13,10.0,WNW,6.9,-,N/A,,Clear,300,2013-07-02 16:55:00
12:15 PM,80.6,48.7,33,30.13,10.0,WNW,8.1,-,N/A,,Clear,300,2013-07-02 17:15:00
12:35 PM,80.8,46.4,30,30.12,10.0,NNW,8.1,-,N/A,,Scattered Clouds,330,2013-07-02 17:35:00
12:55 PM,81.9,46.0,28,30.11,10.0,Calm,Calm,-,N/A,,Scattered Clouds,0,2013-07-02 17:55:00
1:15 PM,80.8,46.8,30,30.11,10.0,NW,8.1,-,N/A,,Scattered Clouds,310,2013-07-02 18:15:00
1:35 PM,80.2,49.6,34,30.10,10.0,NW,8.1,-,N/A,,Scattered Clouds,320,2013-07-02 18:35:00
1:55 PM,82.0,48.0,30,30.10,10.0,NNW,5.8,-,N/A,,Clear,330,2013-07-02 18:55:00
2:15 PM,82.2,46.2,28,30.09,10.0,WNW,10.4,16.1,N/A,,Clear,300,2013-07-02 19:15:00
2:35 PM,82.9,46.4,28,30.08,10.0,NW,4.6,10.4,N/A,,Clear,310,2013-07-02 19:35:00
2:55 PM,83.3,48.6,30,30.07,10.0,WNW,8.1,-,N/A,,Scattered Clouds,300,2013-07-02 19:55:00
3:15 PM,82.0,49.8,32,30.07,10.0,NW,6.9,-,N/A,,Mostly Cloudy,310,2013-07-02 20:15:00
3:35 PM,80.1,46.8,31,30.07,10.0,North,8.1,-,N/A,,Scattered Clouds,10,2013-07-02 20:35:00
3:55 PM,79.7,49.1,34,30.06,10.0,North,8.1,-,N/A,,Clear,360,2013-07-02 20:55:00
4:15 PM,79.7,48.4,33,30.06,10.0,North,5.8,-,N/A,,Clear,360,2013-07-02 21:15:00
4:35 PM,80.8,47.5,31,30.06,10.0,North,3.5,-,N/A,,Clear,10,2013-07-02 21:35:00
4:55 PM,82.6,45.1,27,30.05,10.0,NE,8.1,-,N/A,,Clear,50,2013-07-02 21:55:00
5:15 PM,82.9,44.2,26,30.05,10.0,NNE,5.8,-,N/A,,Clear,20,2013-07-02 22:15:00
5:35 PM,83.5,40.8,22,30.05,10.0,NNE,11.5,16.1,N/A,,Scattered Clouds,30,2013-07-02 22:35:00
5:55 PM,81.5,40.3,23,30.05,10.0,NE,6.9,-,N/A,,Mostly Cloudy,40,2013-07-02 22:55:00
6:15 PM,81.1,38.1,21,30.05,10.0,NNE,9.2,-,N/A,,Scattered Clouds,30,2013-07-02 23:15:00
6:35 PM,80.6,40.5,24,30.05,10.0,NNE,6.9,-,N/A,,Clear,30,2013-07-02 23:35:00
6:55 PM,80.1,39.7,24,30.05,10.0,NE,8.1,-,N/A,,Clear,40,2013-07-02 23:55:00
7:15 PM,79.7,40.5,25,30.04,10.0,NNE,6.9,-,N/A,,Clear,30,2013-07-03 00:15:00
7:35 PM,79.2,40.3,25,30.04,10.0,NNE,6.9,-,N/A,,Clear,30,2013-07-03 00:35:00
7:55 PM,78.1,41.5,27,30.04,10.0,NNE,4.6,-,N/A,,Clear,20,2013-07-03 00:55:00
8:15 PM,76.5,46.2,34,30.04,10.0,North,4.6,-,N/A,,Clear,360,2013-07-03 01:15:00
8:35 PM,74.3,49.5,41,30.04,10.0,North,3.5,-,N/A,,Clear,360,2013-07-03 01:35:00
8:55 PM,74.5,46.9,38,30.04,10.0,NNE,4.6,-,N/A,,Clear,30,2013-07-03 01:55:00
9:15 PM,72.9,48.4,42,30.05,10.0,NNE,3.5,-,N/A,,Clear,30,2013-07-03 02:15:00
9:35 PM,72.3,48.9,43,30.05,10.0,North,3.5,-,N/A,,Clear,10,2013-07-03 02:35:00
9:55 PM,71.2,48.0,44,30.05,10.0,Calm,Calm,-,N/A,,Clear,0,2013-07-03 02:55:00
10:15 PM,68.7,50.2,52,30.06,10.0,NW,3.5,-,N/A,,Clear,320,2013-07-03 03:15:00
10:35 PM,66.4,50.7,57,30.06,10.0,Calm,Calm,-,N/A,,Clear,0,2013-07-03 03:35:00
10:55 PM,64.8,51.4,62,30.06,10.0,NNW,3.5,-,N/A,,Clear,340,2013-07-03 03:55:00
11:15 PM,63.1,52.2,67,30.06,10.0,Calm,Calm,-,N/A,,Clear,0,2013-07-03 04:15:00
11:35 PM,66.7,49.1,53,30.06,10.0,Calm,Calm,-,N/A,,Clear,0,2013-07-03 04:35:00
11:55 PM,67.3,47.5,49,30.06,10.0,Calm,Calm,-,N/A,,Clear,0,2013-07-03 04:55:00